Tracking 30107 objects as of 18-Jan-2025
HD Live streaming from Space Station
objects crossing your sky now

EUROBIRD 4A(EUTELSAT W1)

Track EUROBIRD 4A(EUTELSAT W1) now!
EUROBIRD 4A(EUTELSAT W1) is classified as:


NORAD ID: 26487
Int'l Code: 2000-052A
Perigee: 36,333.8 km
Apogee: 36,447.6 km
Inclination: 10.2 °
Period: 1,466.7 minutes
Semi major axis: 42761 km
RCS: 8.6539 m2 (large)
Launch date: September 6, 2000
Source: European Telecommunications Satellite Organization (EUTE)
Launch site: FRENCH GUIANA (FRGUI)

Twenty-eight channels, Europe, Atlantic Islands, North Africa, Middle East, Central Asia.
Your satellite tracking list
Your tracking list is empty




NASA's NSSDC Master Catalog

Two Line Element Set (TLE):
1 26487U 00052A   25017.03382538 -.00000071  00000-0  00000-0 0  9990
2 26487  10.2404  50.5286 0013307 261.5452 281.6628  0.98179350 88118
Source of the keplerian elements: AFSPC